Location: Newark
(48.5667°N, 7.8167°E)
Time: 15:52:50
(UTC+00:00)

ISS - Pass Details

Date: 22 September 2021
Orbit: 418 x 423 km, 51.6° (Epoch: 21 October)

Event Time Altitude Azimuth Distance (km) Brightness Sun altitude
Rises 18:52:50 0° 262° (W) 2,360 1.3 -14.9°
Reaches altitude 10° 18:54:57 10° 266° (W) 1,499 0.2 -15.2°
Maximum altitude 18:58:17 59° 347° (NNW) 488 -3.3 -15.8°
Enters shadow 18:59:54 27° 58° (ENE) 847 -2.6 -16.0°
